SNUGLITE 2
1 52899U 22065F   25364.64239411  .00002580  00000-0  50241-3 0  9998
2 52899  98.1931 145.0759 0007389 184.7757 175.3376 14.63894438186336
UmKA 1 (RS40S)
1 57172U 23091G   25364.80027671  .00010463  00000-0  51008-3 0  9999
2 57172  97.5324  59.1874 0013191 353.1921   6.9132 15.18437630138435
CubeBel-2 (EU11S)
1 57175U 23091K   25364.83972301  .00022434  00000-0  91056-3 0  9992
2 57175  97.5323  61.8792 0010619 356.1611   3.9543 15.24561075138618
RS-38S
1 57189U 23091Z   25364.82647663  .00026025  00000-0  89661-3 0  9995
2 57189  97.5346  66.4723 0007224 317.6599  42.4083 15.29980957138894
SONATE-2
1 59112U 24043Q   25364.32812207  .00041574  00000-0  84599-3 0  9995
2 59112  97.5325 141.2495 0009320 100.1690 260.0611 15.46120567101698
MO-122
1 60209U 24125G   25364.57864473  .00049267  00000-0  95235-3 0  9990
2 60209  97.2513 214.9762 0015494 114.3125 245.9745 15.47490267 83368
GRBBeta
1 60237U 24128C   25364.82504628  .00007837  00000-0  54587-3 0  9997
2 60237  61.9914  86.2790 0055540  99.8804 260.8565 15.04960603 80913
Curium One
1 60242U 24128H   25364.75262472  .00014203  00000-0  86801-3 0  9992
2 60242  61.9804  80.9743 0055212  96.6117 264.1266 15.09261669 81001
ROBUSTA-3A
1 60243U 24128J   25364.56540140  .00014022  00000-0  87374-3 0  9998
2 60243  61.9879  83.2501 0055450  94.0723 266.6712 15.08556504 80951
CatSat
1 60246U 24125J   25364.14058883  .00053982  00000-0  12390-2 0  9993
2 60246  97.2298 211.3516 0034306  83.1111 277.4038 15.41906026 81203
HYPERVIEW-1G (RS66S)
1 61772U 24199AP  25364.90018462  .00068661  00000-0  12369-2 0  9998
2 61772  97.3203 234.5807 0009636 161.2428 198.9180 15.49514805108429
AO-123
1 61781U 24199AY  25364.89423177  .00017432  00000-0  55771-3 0  9994
2 61781  97.3243 230.1488 0014016 184.3703 175.7419 15.32381526108129
ZIMSAT 2
1 61783U 24199BA  25361.58198973  .00358820  00000-0  17952-2 0  9999
2 61783  97.3047 235.3597 0006529 129.8237 230.3607 15.80833029111345
HADES-R (SO-124)
1 62690U 25009CK  25364.19237806  .00322643  00000-0  30678-2 0  9991
2 62690  97.3833  87.5630 0001882 305.3769  54.7314 15.65833478 53506
HYDRA-T
1 62692U 25009CM  25363.76210757  .00382180  00000-0  32445-2 0  9997
2 62692  97.3827  87.3749 0002509 300.4863  59.6150 15.68474842 53453
JINJUSat 1B
1 63210U 25052A   25364.67537808  .00027054  00000-0  10105-2 0  9997
2 63210  97.4200 256.7258 0003462 359.2918   0.8315 15.27339857 44323
NUSHSAT 1
1 63211U 25052B   25364.65778804  .00031307  00000-0  11278-2 0  9997
2 63211  97.4180 256.8555 0003665   4.7630 355.3644 15.28501132 44332
TEVEL2-4
1 63213U 25052D   25364.66679582  .00029259  00000-0  10779-2 0  9991
2 63213  97.4100 256.3787 0003656  24.9315 335.2101 15.27777372 44326
TEVEL2-5
1 63214U 25052E   25364.67316622  .00028505  00000-0  10529-2 0  9992
2 63214  97.4100 256.3699 0003632  25.1092 335.0323 15.27695509 44323
TEVEL2-6
1 63215U 25052F   25364.68102159  .00028292  00000-0  10465-2 0  9994
2 63215  97.4103 256.3656 0003725  25.0618 335.0802 15.27650402 44321
TEVEL2-1
1 63217U 25052H   25364.66210299  .00028686  00000-0  10721-2 0  9991
2 63217  97.4078 256.1425 0004253  33.5805 326.5703 15.27303736 44314
TEVEL2-3
1 63218U 25052J   25364.66103419  .00029090  00000-0  10863-2 0  9994
2 63218  97.4078 256.1482 0004296  33.8627 326.2885 15.27328289 44318
TEVEL2-2
1 63219U 25052K   25364.66285324  .00028255  00000-0  10560-2 0  9997
2 63219  97.4078 256.1436 0004232  33.8859 326.2649 15.27304962 44315
TEVEL2-9
1 63237U 25052AD  25364.70927170  .00026937  00000-0  10538-2 0  9994
2 63237  97.4142 255.8700 0008312  32.4698 327.7050 15.25774608 44280
TEVEL2-7
1 63238U 25052AE  25364.65943727  .00026814  00000-0  10543-2 0  9995
2 63238  97.4140 255.7907 0008427  31.9909 328.1839 15.25607104 44278
TEVEL2-8
1 63239U 25052AF  25364.66537367  .00026806  00000-0  10548-2 0  9992
2 63239  97.4141 255.7808 0008407  32.5987 327.5768 15.25582091 44272
HYDRA-W
1 63490U 25052BL  25364.66985654  .00114027  00000-0  24507-2 0  9990
2 63490  97.4043 258.7386 0009298  26.8443 333.3285 15.44199959 44488
HADES-ICM (SO-125)
1 63492U 25052BN  25364.68926905  .00099100  00000-0  23057-2 0  9991
2 63492  97.4065 258.4339 0009876  29.1483 331.0313 15.41885193 44465
Dragonfly
1 65729U 98067XH  25364.37696388  .00302916  00000-0  16178-2 0  9995
2 65729  51.6255  45.0298 0008679  20.0434 340.0906 15.78913616 15944
RSP-03
1 65732U 98067XL  25364.36010435  .00204382  00000-0  13918-2 0  9998
2 65732  51.6265  46.4360 0006356   1.6609 358.4410 15.73698576 15935
GHS-01
1 65733U 98067XM  25364.34851925  .00460338  00000-0  18874-2 0  9995
2 65733  51.6270  44.0965 0009807  24.2416 335.9046 15.84202469 15960
BOTAN
1 65942U 98067XP  25364.53635657  .00167515  00000-0  15144-2 0  9998
2 65942  51.6282  49.1302 0004053  14.4152 345.6959 15.67032425 12650
CEVROSAT1
1 66309U 25248S   25364.83056434  .00027906  00000-0  13407-2 0  9999
2 66309  45.4038 303.0560 0002072 190.7683 169.3159 15.18427263  8902
BEE-1000
1 66650U 25274A   25364.79680556  .00002943  00000-0  29751-3 0  9994
2 66650  97.7406 291.6549 0011575 186.3670 173.7403 14.91730764  5095
SPIRONE
1 66657U 25274H   25364.77880978  .00004510  00000-0  44341-3 0  9993
2 66657  97.7398 291.6768 0011324 208.4417 151.6185 14.92574261  5093
K-HERO
1 66660U 25274L   25364.76724779  .00004740  00000-0  45974-3 0  9990
2 66660  97.7408 291.6948 0013015 213.8583 146.1807 14.93075870  5095
SNUGLITE-III DURI
1 66661U 25274M   25364.76403845  .00004356  00000-0  42157-3 0  9992
2 66661  97.7405 291.6978 0013606 215.2504 144.7817 14.93202132  5099
SilverSat
1 66909U 98067XV  25364.74510061  .00104918  00000-0  15595-2 0  9994
2 66909  51.6313  52.7744 0003945 342.2400  17.8453 15.54329536  4416
